Simultaneous Nadir Overpasses (SNOs) Predictions

Prediction of SNOs between AQUA and TERRA Satellite Orbit:

Table of predicted SNOs for the next 14.0 days since TLE Epoch: 10/22/2022
Index Date (AQUA) Time (AQUA) Lat,Lon (AQUA) SZA (AQUA ) Date (TERRA) Time (TERRA) Lat,Lon (TERRA) SZA (TERRA ) Distance(km) Time Diff (sec)
1 10/22/2022 04:03:23 71.77, 118.50 82.72 10/22/2022 04:02:19 71.74, 118.46 82.69 3.33 64
2 10/22/2022 04:52:47 -71.74, -73.80 97.30 10/22/2022 04:51:43 -71.76, -73.86 97.29 2.69 64
3 10/22/2022 05:42:14 71.73, 93.85 82.71 10/22/2022 05:41:05 71.74, 93.76 82.71 3.17 69
4 10/22/2022 06:31:39 -71.76, -98.55 97.25 10/22/2022 06:30:29 -71.75, -98.57 97.27 1.16 70
5 10/22/2022 07:21:04 71.64, 69.29 82.65 10/22/2022 07:19:52 71.67, 68.97 82.67 11.91 72
6 10/22/2022 08:10:28 -71.67,-123.11 97.32 10/22/2022 08:09:16 -71.64,-123.45 97.36 12.52 72
7 10/22/2022 08:59:51 71.44, 44.91 82.48 10/22/2022 08:58:41 71.45, 43.91 82.46 35.51 70
8 10/22/2022 09:49:16 -71.47,-147.49 97.49 10/22/2022 09:48:05 -71.47,-148.42 97.51 32.86 71
9 10/22/2022 10:38:39 71.24, 20.52 82.31 10/22/2022 10:37:31 71.23, 18.85 82.26 59.69 68
10 10/22/2022 11:28:04 -71.27,-171.88 97.66 10/22/2022 11:26:55 -71.24,-173.47 97.72 56.98 69
11 10/22/2022 12:17:27 71.04, -3.87 82.14 10/22/2022 12:16:21 71.00, -6.19 82.05 83.96 66
12 10/22/2022 13:06:51 -71.02, 163.81 97.88 10/22/2022 13:05:45 -71.02, 161.49 97.92 84.15 66



Historial Predications of SNOs between AQUA and TERRA
